Find Starlink 1504

NORAD ID: 45746 Int'l Des: 2020-038 Owner: SPXS Country: US Constellation: starlink operational
LEOCIRCULAR

現在のビュー

3D地球を読み込み中...

About Starlink 1504

Starlink 1504 (NORAD 45746) is a starlink constellation satellite (v1.0) launched Jun 13, 2020 by SPXS of US. It operates in LEO, CIRCULAR orbit with a mass of 260.00 kg.

Starlink 1504について

説明を読み込み中...

次回通過

Passes for default location (London). Set your location on the main map for personalized predictions.

高度履歴

Loading altitude history...

軌道要素

1 45746U 20038S 26170.96860192 .00032951 00000-0 40663-3 0 9998
2 45746 53.0207 6.2128 0002323 144.3609 215.7558 15.59885278333449
Epoch: Jun 19, 2026 • Age: 13 hours

現在のステータス

高度 392.0 km
速度 7.68 km/s
衛星直下点 -18.24°S, 102.89°E
打ち上げ日 Jun 13, 2020
運用期間 6 years
タイプ internet

技術仕様

分類 Payload
質量 260.00 kg
乾燥質量 248.00 kg
総質量 260.00 kg
長さ 0.20 m
直径 2.80 m
スパン 9.00 m
形状 Box + pan
製造者 SPXS
バスタイプ Starlink
フェーズステータス In Orbit
所有者/国 SPXS/US

Most Searched